| time (UTC) | temp F | wind direction | speed MPH | gust MPH | rain 1hr in | rain 24hr in | rain mn in | humidity % | barometer mb |
| 20260510192055 | 55 | 345 | 4.0 | 12.0 | 0.00 | 0.24 | 0.00 | 44 | 1015.8 |
| 20260510191559 | 55 | 333 | 5.0 | 15.0 | 0.00 | 0.24 | 0.00 | 45 | 1015.8 |
| 20260510191056 | 55 | 35 | 6.0 | 15.0 | 0.00 | 0.24 | 0.00 | 45 | 1015.8 |
| 20260510190553 | 56 | 289 | 3.0 | 13.0 | 0.00 | 0.24 | 0.00 | 48 | 1015.8 |
| 20260510190057 | 55 | 286 | 4.0 | 13.0 | 0.00 | 0.24 | 0.00 | 46 | 1015.8 |
| 20260510185555 | 55 | 299 | 6.0 | 13.0 | 0.00 | 0.24 | 0.00 | 44 | 1015.8 |
| 20260510185055 | 55 | 291 | 7.0 | 12.0 | 0.00 | 0.24 | 0.00 | 46 | 1015.8 |
| 20260510184555 | 56 | 285 | 4.0 | 10.0 | 0.00 | 0.24 | 0.00 | 45 | 1015.8 |
| 20260510184054 | 56 | 295 | 4.0 | 13.0 | 0.00 | 0.24 | 0.00 | 46 | 1015.8 |
| 20260510183554 | 56 | 307 | 4.0 | 13.0 | 0.00 | 0.24 | 0.00 | 49 | 1015.7 |
| 20260510183055 | 56 | 286 | 2.0 | 9.0 | 0.00 | 0.24 | 0.00 | 46 | 1015.7 |
| 20260510182556 | 55 | 293 | 4.0 | 11.0 | 0.00 | 0.24 | 0.00 | 48 | 1015.7 |
| 20260510182057 | 55 | 321 | 5.0 | 11.0 | 0.00 | 0.24 | 0.00 | 47 | 1015.6 |
| 20260510181552 | 55 | 334 | 6.0 | 13.0 | 0.00 | 0.24 | 0.00 | 44 | 1015.7 |
| 20260510181055 | 55 | 313 | 6.0 | 13.0 | 0.00 | 0.24 | 0.00 | 51 | 1015.5 |
| 20260510180555 | 56 | 322 | 4.0 | 13.0 | 0.00 | 0.24 | 0.00 | 47 | 1015.5 |
| 20260510180104 | 56 | 328 | 3.0 | 6.0 | 0.00 | 0.24 | 0.00 | 51 | 1015.4 |
| 20260510175555 | 56 | 32 | 2.0 | 9.0 | 0.00 | 0.24 | 0.00 | 50 | 1015.2 |
| 20260510175055 | 55 | 339 | 2.0 | 10.0 | 0.00 | 0.24 | 0.00 | 49 | 1015.2 |
| 20260510174554 | 55 | 309 | 3.0 | 10.0 | 0.00 | 0.24 | 0.00 | 47 | 1015.3 |
| 20260510174055 | 55 | 332 | 4.0 | 10.0 | 0.00 | 0.24 | 0.00 | 48 | 1015.2 |
| 20260510173554 | 56 | 338 | 3.0 | 11.0 | 0.00 | 0.24 | 0.00 | 48 | 1015.1 |
| 20260510173057 | 56 | 338 | 4.0 | 11.0 | 0.00 | 0.24 | 0.00 | 47 | 1015.0 |
| 20260510172556 | 56 | 295 | 2.0 | 5.0 | 0.00 | 0.24 | 0.00 | 48 | 1015.1 |
| 20260510172054 | 56 | 326 | 1.0 | 7.0 | 0.00 | 0.24 | 0.00 | 48 | 1015.0 |
| 20260510171559 | 55 | 308 | 2.0 | 10.0 | 0.00 | 0.24 | 0.00 | 48 | 1015.0 |
| 20260510171053 | 55 | 343 | 4.0 | 10.0 | 0.00 | 0.24 | 0.00 | 48 | 1014.9 |
| 20260510170552 | 56 | 297 | 4.0 | 8.0 | 0.00 | 0.24 | 0.00 | 47 | 1015.0 |
| 20260510170103 | 56 | 318 | 1.0 | 5.0 | 0.00 | 0.24 | 0.00 | 53 | 1014.9 |
| 20260510165555 | 55 | 342 | 2.0 | 6.0 | 0.00 | 0.24 | 0.00 | 52 | 1014.9 |
| 20260510165054 | 55 | 16 | 2.0 | 6.0 | 0.00 | 0.24 | 0.00 | 55 | 1014.9 |
| 20260510164559 | 55 | 334 | 2.0 | 12.0 | 0.00 | 0.24 | 0.00 | 52 | 1014.9 |
| 20260510164056 | 55 | 8 | 4.0 | 12.0 | 0.00 | 0.24 | 0.00 | 52 | 1015.0 |
| 20260510163554 | 55 | 324 | 2.0 | 7.0 | 0.00 | 0.24 | 0.00 | 52 | 1014.9 |
| 20260510163058 | 55 | 342 | 1.0 | 7.0 | 0.00 | 0.24 | 0.00 | 53 | 1014.9 |
| 20260510162555 | 55 | 342 | 2.0 | 7.0 | 0.00 | 0.24 | 0.00 | 51 | 1014.9 |
| 20260510162054 | 55 | 349 | 2.0 | 7.0 | 0.00 | 0.24 | 0.00 | 50 | 1014.9 |
| 20260510161556 | 55 | 308 | 3.0 | 12.0 | 0.00 | 0.24 | 0.00 | 51 | 1014.9 |
| 20260510161056 | 54 | 347 | 3.0 | 12.0 | 0.00 | 0.24 | 0.00 | 53 | 1014.8 |
| 20260510160554 | 55 | 300 | 2.0 | 7.0 | 0.00 | 0.24 | 0.00 | 50 | 1014.7 |
| 20260510160100 | 54 | 299 | 4.0 | 10.0 | 0.00 | 0.24 | 0.00 | 50 | 1014.7 |
| 20260510155553 | 54 | 24 | 2.0 | 10.0 | 0.00 | 0.24 | 0.00 | 52 | 1014.8 |
| 20260510155057 | 54 | 339 | 3.0 | 10.0 | 0.00 | 0.24 | 0.00 | 51 | 1014.8 |
| 20260510154617 | 53 | 300 | 3.0 | 9.0 | 0.00 | 0.24 | 0.00 | 50 | 1014.9 |
| 20260510154055 | 53 | 316 | 2.0 | 9.0 | 0.00 | 0.24 | 0.00 | 50 | 1014.8 |
| 20260510153554 | 53 | 344 | 3.0 | 6.0 | 0.00 | 0.24 | 0.00 | 53 | 1014.8 |
| 20260510153058 | 53 | 317 | 3.0 | 10.0 | 0.00 | 0.24 | 0.00 | 54 | 1014.6 |
| 20260510152554 | 53 | 319 | 3.0 | 10.0 | 0.00 | 0.24 | 0.00 | 54 | 1014.7 |
| 20260510152056 | 53 | 298 | 2.0 | 9.0 | 0.00 | 0.24 | 0.00 | 57 | 1014.6 |
| 20260510151554 | 53 | 338 | 3.0 | 9.0 | 0.00 | 0.24 | 0.00 | 55 | 1014.6 |
| 20260510151054 | 53 | 320 | 3.0 | 9.0 | 0.00 | 0.24 | 0.00 | 56 | 1014.5 |
| 20260510150554 | 53 | 300 | 4.0 | 9.0 | 0.00 | 0.24 | 0.00 | 58 | 1014.4 |
| 20260510150055 | 53 | 293 | 3.0 | 9.0 | 0.00 | 0.24 | 0.00 | 59 | 1014.3 |
| 20260510145554 | 53 | 325 | 3.0 | 11.0 | 0.00 | 0.24 | 0.00 | 56 | 1014.2 |
| 20260510145054 | 53 | 295 | 6.0 | 11.0 | 0.00 | 0.24 | 0.00 | 57 | 1014.2 |
| 20260510144554 | 53 | 302 | 2.0 | 8.0 | 0.00 | 0.24 | 0.00 | 61 | 1014.1 |
| 20260510144054 | 53 | 300 | 4.0 | 8.0 | 0.00 | 0.24 | 0.00 | 63 | 1014.0 |
| 20260510143554 | 52 | 307 | 1.0 | 6.0 | 0.00 | 0.24 | 0.00 | 63 | 1013.9 |
| 20260510143059 | 52 | 303 | 2.0 | 7.0 | 0.00 | 0.24 | 0.00 | 63 | 1013.9 |
| 20260510142553 | 51 | 259 | 5.0 | 7.0 | 0.00 | 0.24 | 0.00 | 61 | 1013.8 |
| 20260510142053 | 51 | 302 | 3.0 | 8.0 | 0.00 | 0.24 | 0.00 | 64 | 1013.8 |
| 20260510141557 | 51 | 306 | 5.0 | 9.0 | 0.00 | 0.24 | 0.00 | 62 | 1013.7 |
| 20260510141053 | 51 | 342 | 2.0 | 9.0 | 0.00 | 0.24 | 0.00 | 64 | 1013.6 |
| 20260510140559 | 51 | 277 | 4.0 | 7.0 | 0.00 | 0.24 | 0.00 | 66 | 1013.5 |
| 20260510140056 | 51 | 314 | 2.0 | 8.0 | 0.00 | 0.24 | 0.00 | 67 | 1013.5 |
| 20260510135554 | 50 | 282 | 3.0 | 9.0 | 0.00 | 0.24 | 0.00 | 67 | 1013.4 |
| 20260510135054 | 50 | 300 | 5.0 | 9.0 | 0.00 | 0.24 | 0.00 | 64 | 1013.4 |
| 20260510134601 | 51 | 286 | 4.0 | 9.0 | 0.00 | 0.24 | 0.00 | 66 | 1013.2 |
| 20260510134057 | 51 | 285 | 4.0 | 9.0 | 0.00 | 0.24 | 0.00 | 65 | 1013.2 |
| 20260510133555 | 51 | 337 | 2.0 | 8.0 | 0.00 | 0.24 | 0.00 | 67 | 1013.1 |
| 20260510133059 | 51 | 283 | 4.0 | 8.0 | 0.00 | 0.24 | 0.00 | 72 | 1013.1 |
| 20260510132557 | 51 | 314 | 5.0 | 8.0 | 0.00 | 0.24 | 0.00 | 71 | 1013.0 |
| 20260510132059 | 50 | 257 | 5.0 | 7.0 | 0.00 | 0.24 | 0.00 | 72 | 1013.1 |
| 20260510131604 | 49 | 236 | 2.0 | 6.0 | 0.00 | 0.24 | 0.00 | 72 | 1013.1 |
| 20260510131057 | 49 | 259 | 1.0 | 6.0 | 0.00 | 0.24 | 0.00 | 72 | 1013.1 |
| 20260510130601 | 49 | 290 | 4.0 | 7.0 | 0.00 | 0.24 | 0.00 | 72 | 1013.1 |
| 20260510130057 | 49 | 286 | 2.0 | 7.0 | 0.00 | 0.24 | 0.00 | 71 | 1013.1 |
| 20260510125558 | 49 | 302 | 2.0 | 5.0 | 0.00 | 0.24 | 0.00 | 72 | 1013.1 |
| 20260510125057 | 49 | 249 | 1.0 | 5.0 | 0.00 | 0.24 | 0.00 | 73 | 1013.0 |
| 20260510124610 | 49 | 292 | 1.0 | 4.0 | 0.00 | 0.24 | 0.00 | 71 | 1012.9 |
| 20260510124058 | 49 | 297 | 1.0 | 2.0 | 0.00 | 0.24 | 0.00 | 72 | 1012.9 |
| 20260510123601 | 49 | 0 | 0.0 | 3.0 | 0.00 | 0.24 | 0.00 | 74 | 1012.8 |
| 20260510123110 | 48 | 223 | 0.0 | 3.0 | 0.00 | 0.24 | 0.00 | 73 | 1012.8 |
| 20260510122557 | 48 | 311 | 0.0 | 3.0 | 0.00 | 0.24 | 0.00 | 74 | 1012.8 |
| 20260510122057 | 48 | 279 | 0.0 | 3.0 | 0.00 | 0.24 | 0.00 | 74 | 1012.7 |
| 20260510121602 | 48 | 247 | 0.0 | 4.0 | 0.00 | 0.24 | 0.00 | 74 | 1012.7 |
| 20260510121057 | 48 | 294 | 1.0 | 4.0 | 0.00 | 0.24 | 0.00 | 73 | 1012.7 |
| 20260510120557 | 48 | 294 | 1.0 | 3.0 | 0.00 | 0.24 | 0.00 | 75 | 1012.8 |
| 20260510120103 | 48 | 311 | 1.0 | 3.0 | 0.00 | 0.24 | 0.00 | 74 | 1012.5 |
| 20260510115559 | 48 | 332 | 0.0 | 3.0 | 0.00 | 0.24 | 0.00 | 74 | 1012.8 |
| 20260510115103 | 48 | 287 | 1.0 | 3.0 | 0.00 | 0.24 | 0.00 | 73 | 1012.5 |
| 20260510114604 | 48 | 304 | 0.0 | 4.0 | 0.00 | 0.24 | 0.00 | 76 | 1012.3 |
| 20260510114057 | 48 | 282 | 0.0 | 4.0 | 0.00 | 0.24 | 0.00 | 76 | 1012.1 |
| 20260510113558 | 48 | 289 | 0.0 | 3.0 | 0.00 | 0.24 | 0.00 | 77 | 1011.9 |
| 20260510113102 | 48 | 0 | 1.0 | 3.0 | 0.00 | 0.24 | 0.00 | 77 | 1011.8 |
| 20260510112558 | 48 | 305 | 1.0 | 3.0 | 0.00 | 0.24 | 0.00 | 76 | 1011.7 |
| 20260510112058 | 48 | 307 | 1.0 | 3.0 | 0.00 | 0.24 | 0.00 | 78 | 1011.5 |
| 20260510111626 | 48 | 287 | 1.0 | 2.0 | 0.00 | 0.24 | 0.00 | 78 | 1011.4 |
| 20260510111057 | 48 | 255 | 1.0 | 2.0 | 0.00 | 0.24 | 0.00 | 79 | 1011.4 |
| 20260510110557 | 48 | 269 | 0.0 | 1.0 | 0.00 | 0.24 | 0.00 | 79 | 1011.3 |
| 20260510110059 | 48 | 0 | 0.0 | 3.0 | 0.00 | 0.24 | 0.00 | 79 | 1011.2 |
| 20260510105557 | 48 | 273 | 0.0 | 3.0 | 0.00 | 0.24 | 0.00 | 78 | 1011.1 |
| 20260510105056 | 48 | 284 | 1.0 | 3.0 | 0.00 | 0.24 | 0.00 | 78 | 1011.1 |
| 20260510104608 | 48 | 0 | 1.0 | 3.0 | 0.00 | 0.24 | 0.00 | 79 | 1010.8 |
| 20260510104059 | 48 | 297 | 0.0 | 4.0 | 0.00 | 0.24 | 0.00 | 78 | 1010.8 |
| 20260510103557 | 48 | 254 | 1.0 | 4.0 | 0.00 | 0.24 | 0.00 | 78 | 1010.4 |
| 20260510103056 | 48 | 294 | 0.0 | 5.0 | 0.00 | 0.24 | 0.00 | 80 | 1010.5 |
| 20260510102555 | 48 | 330 | 1.0 | 5.0 | 0.00 | 0.24 | 0.00 | 80 | 1010.4 |
| 20260510102055 | 49 | 323 | 2.0 | 5.0 | 0.00 | 0.24 | 0.00 | 80 | 1010.3 |
| 20260510101553 | 49 | 308 | 2.0 | 5.0 | 0.00 | 0.24 | 0.00 | 80 | 1010.1 |
| 20260510101054 | 49 | 324 | 1.0 | 4.0 | 0.00 | 0.24 | 0.00 | 80 | 1010.1 |
| 20260510100555 | 49 | 333 | 0.0 | 3.0 | 0.00 | 0.24 | 0.00 | 80 | 1009.9 |
| 20260510100058 | 49 | 0 | 0.0 | 3.0 | 0.00 | 0.24 | 0.00 | 80 | 1009.8 |
| 20260510095556 | 49 | 0 | 1.0 | 4.0 | 0.00 | 0.24 | 0.00 | 80 | 1009.9 |
| 20260510095055 | 49 | 293 | 2.0 | 4.0 | 0.00 | 0.24 | 0.00 | 80 | 1009.8 |
| 20260510094554 | 49 | 307 | 1.0 | 3.0 | 0.00 | 0.24 | 0.00 | 82 | 1009.7 |
| 20260510094053 | 49 | 0 | 0.0 | 4.0 | 0.00 | 0.24 | 0.00 | 83 | 1009.4 |
| 20260510093552 | 49 | 341 | 1.0 | 4.0 | 0.00 | 0.24 | 0.00 | 84 | 1009.3 |
| 20260510093056 | 49 | 0 | 0.0 | 2.0 | 0.00 | 0.24 | 0.00 | 85 | 1009.3 |
| 20260510092552 | 50 | 0 | 0.0 | 4.0 | 0.00 | 0.24 | 0.00 | 87 | 1009.1 |
| 20260510092053 | 50 | 0 | 1.0 | 4.0 | 0.00 | 0.24 | 0.00 | 88 | 1009.0 |
| 20260510091558 | 50 | 312 | 1.0 | 3.0 | 0.00 | 0.24 | 0.00 | 89 | 1008.9 |
| 20260510091052 | 50 | 0 | 0.0 | 3.0 | 0.00 | 0.24 | 0.00 | 90 | 1009.1 |
| 20260510090555 | 50 | 0 | 0.0 | 4.0 | 0.00 | 0.24 | 0.00 | 90 | 1009.0 |
| 20260510085557 | 51 | 297 | 1.0 | 2.0 | 0.00 | 0.24 | 0.00 | 91 | 1008.9 |
| 20260510085054 | 51 | 0 | 0.0 | 3.0 | 0.00 | 0.24 | 0.00 | 91 | 1008.7 |
| 20260510084600 | 51 | 0 | 0.0 | 3.0 | 0.00 | 0.24 | 0.00 | 91 | 1008.5 |
| 20260510084056 | 51 | 309 | 2.0 | 3.0 | 0.00 | 0.24 | 0.00 | 92 | 1008.7 |
| 20260510083555 | 50 | 295 | 1.0 | 3.0 | 0.00 | 0.24 | 0.00 | 92 | 1008.8 |
| 20260510083059 | 50 | 0 | 0.0 | 3.0 | 0.00 | 0.24 | 0.00 | 92 | 1008.7 |
| 20260510082557 | 50 | 0 | 0.0 | 3.0 | 0.00 | 0.24 | 0.00 | 92 | 1008.5 |
| 20260510082056 | 50 | 296 | 1.0 | 3.0 | 0.00 | 0.24 | 0.00 | 92 | 1008.7 |
| 20260510081555 | 50 | 0 | 0.0 | 2.0 | 0.00 | 0.24 | 0.00 | 93 | 1008.6 |
| 20260510081055 | 50 | 0 | 1.0 | 4.0 | 0.00 | 0.24 | 0.00 | 93 | 1008.5 |
| 20260510080554 | 50 | 271 | 1.0 | 4.0 | 0.00 | 0.24 | 0.00 | 93 | 1008.5 |
| 20260510080101 | 49 | 288 | 0.0 | 2.0 | 0.00 | 0.24 | 0.00 | 94 | 1008.5 |
| 20260510075557 | 49 | 234 | 0.0 | 2.0 | 0.00 | 0.24 | 0.00 | 94 | 1008.2 |
| 20260510075058 | 48 | 278 | 0.0 | 0.0 | 0.00 | 0.24 | 0.00 | 93 | 1008.1 |
| 20260510074553 | 48 | 0 | 0.0 | 0.0 | 0.00 | 0.24 | 0.00 | 93 | 1007.9 |
| 20260510074056 | 48 | 0 | 0.0 | 0.0 | 0.00 | 0.24 | 0.00 | 93 | 1007.8 |
| 20260510073555 | 48 | 0 | 0.0 | 0.0 | 0.00 | 0.24 | 0.00 | 93 | 1007.9 |
| 20260510073056 | 48 | 0 | 0.0 | 0.0 | 0.00 | 0.24 | 0.00 | 93 | 1007.7 |
| 20260510072556 | 48 | 0 | 0.0 | 0.0 | 0.00 | 0.24 | 0.00 | 93 | 1007.9 |
| 20260510072103 | 48 | 0 | 0.0 | 0.0 | 0.00 | 0.24 | 0.00 | 93 | 1007.9 |
| 20260510071555 | 48 | 0 | 0.0 | 0.0 | 0.00 | 0.24 | 0.00 | 93 | 1007.9 |
| 20260510071057 | 48 | 0 | 0.0 | 0.0 | 0.00 | 0.24 | 0.00 | 93 | 1007.8 |
| 20260510070557 | 47 | 0 | 0.0 | 0.0 | 0.00 | 0.24 | 0.00 | 92 | 1007.9 |
| 20260510070106 | 47 | 0 | 0.0 | 0.0 | 0.00 | 0.24 | 0.00 | 92 | 1007.7 |
| 20260510065558 | 47 | 0 | 0.0 | 0.0 | 0.00 | 0.24 | 0.00 | 92 | 1007.7 |
| 20260510065057 | 47 | 0 | 0.0 | 0.0 | 0.00 | 0.24 | 0.00 | 92 | 1007.6 |
| 20260510064608 | 48 | 0 | 0.0 | 0.0 | 0.00 | 0.24 | 0.00 | 92 | 1007.6 |
| 20260510064057 | 47 | 0 | 0.0 | 0.0 | 0.00 | 0.24 | 0.00 | 92 | 1007.6 |
| 20260510063558 | 48 | 0 | 0.0 | 0.0 | 0.00 | 0.24 | 0.00 | 92 | 1007.5 |
| 20260510063057 | 48 | 0 | 0.0 | 0.0 | 0.00 | 0.24 | 0.00 | 91 | 1007.4 |
| 20260510062600 | 48 | 0 | 0.0 | 0.0 | 0.00 | 0.24 | 0.00 | 91 | 1007.3 |
| 20260510062057 | 48 | 0 | 0.0 | 0.0 | 0.00 | 0.24 | 0.00 | 91 | 1007.3 |
| 20260510061554 | 49 | 0 | 0.0 | 0.0 | 0.00 | 0.24 | 0.00 | 92 | 1007.3 |
| 20260510061102 | 49 | 0 | 0.0 | 0.0 | 0.00 | 0.24 | 0.00 | 92 | 1007.2 |
| 20260510060557 | 49 | 0 | 0.0 | 0.0 | 0.00 | 0.24 | 0.00 | 92 | 1007.3 |
| 20260510060055 | 49 | 0 | 0.0 | 0.0 | 0.00 | 0.24 | 0.00 | 92 | 1007.4 |
| 20260510055557 | 49 | 0 | 0.0 | 0.0 | 0.00 | 0.24 | 0.00 | 92 | 1007.6 |
| 20260510055056 | 49 | 0 | 0.0 | 0.0 | 0.00 | 0.24 | 0.00 | 92 | 1007.6 |
| 20260510054554 | 49 | 0 | 0.0 | 0.0 | 0.00 | 0.24 | 0.00 | 92 | 1007.7 |
| 20260510054057 | 49 | 0 | 0.0 | 1.0 | 0.00 | 0.24 | 0.00 | 92 | 1007.7 |
| 20260510053558 | 49 | 0 | 0.0 | 1.0 | 0.00 | 0.24 | 0.00 | 91 | 1007.7 |
| 20260510053057 | 49 | 0 | 0.0 | 0.0 | 0.00 | 0.24 | 0.00 | 91 | 1007.7 |
| 20260510052558 | 49 | 0 | 0.0 | 0.0 | 0.00 | 0.24 | 0.00 | 91 | 1007.7 |
| 20260510052057 | 49 | 0 | 0.0 | 0.0 | 0.00 | 0.24 | 0.00 | 91 | 1007.6 |
| 20260510051608 | 50 | 0 | 0.0 | 0.0 | 0.00 | 0.24 | 0.00 | 91 | 1007.7 |
| 20260510051103 | 50 | 0 | 0.0 | 0.0 | 0.00 | 0.24 | 0.00 | 91 | 1007.6 |
| 20260510050557 | 50 | 0 | 0.0 | 1.0 | 0.00 | 0.24 | 0.00 | 90 | 1007.7 |
| 20260510050058 | 50 | 0 | 0.0 | 2.0 | 0.00 | 0.24 | 0.00 | 91 | 1007.8 |
| 20260510045557 | 50 | 0 | 0.0 | 3.0 | 0.00 | 0.24 | 0.00 | 91 | 1007.8 |
| 20260510045100 | 50 | 0 | 0.0 | 3.0 | 0.00 | 0.24 | 0.00 | 90 | 1007.7 |
| 20260510044609 | 51 | 216 | 0.0 | 3.0 | 0.00 | 0.24 | 0.00 | 91 | 1007.6 |
| 20260510044057 | 51 | 234 | 0.0 | 2.0 | 0.00 | 0.24 | 0.00 | 90 | 1007.5 |
| 20260510043557 | 51 | 0 | 0.0 | 2.0 | 0.00 | 0.24 | 0.00 | 90 | 1007.4 |
| 20260510043054 | 51 | 0 | 0.0 | 2.0 | 0.00 | 0.24 | 0.00 | 90 | 1007.4 |
| 20260510042556 | 51 | 0 | 0.0 | 3.0 | 0.00 | 0.24 | 0.00 | 90 | 1007.3 |
| 20260510042059 | 51 | 205 | 0.0 | 3.0 | 0.00 | 0.24 | 0.00 | 90 | 1007.4 |
| 20260510041607 | 51 | 223 | 0.0 | 3.0 | 0.00 | 0.24 | 0.00 | 91 | 1007.2 |
| 20260510041056 | 51 | 252 | 0.0 | 4.0 | 0.01 | 0.24 | 0.00 | 91 | 1007.2 |
| 20260510040558 | 51 | 231 | 2.0 | 4.0 | 0.01 | 0.24 | 0.00 | 91 | 1007.2 |
| 20260510040059 | 51 | 223 | 0.0 | 2.0 | 0.01 | 0.24 | 0.00 | 91 | 1007.1 |
| 20260510035555 | 52 | 226 | 0.0 | 3.0 | 0.01 | 0.24 | 0.24 | 91 | 1007.0 |
| 20260510035055 | 52 | 206 | 1.0 | 3.0 | 0.01 | 0.24 | 0.24 | 91 | 1006.9 |
| 20260510034605 | 52 | 0 | 1.0 | 4.0 | 0.01 | 0.24 | 0.24 | 91 | 1006.8 |
| 20260510034054 | 52 | 143 | 2.0 | 4.0 | 0.02 | 0.24 | 0.24 | 91 | 1006.8 |
| 20260510033554 | 52 | 0 | 1.0 | 3.0 | 0.02 | 0.24 | 0.24 | 91 | 1006.8 |
| 20260510033057 | 52 | 0 | 0.0 | 3.0 | 0.02 | 0.24 | 0.24 | 91 | 1006.5 |
| 20260510032556 | 52 | 0 | 0.0 | 4.0 | 0.03 | 0.24 | 0.24 | 91 | 1006.5 |
| 20260510032052 | 52 | 0 | 0.0 | 4.0 | 0.04 | 0.24 | 0.24 | 91 | 1006.4 |
| 20260510031608 | 52 | 131 | 1.0 | 4.0 | 0.05 | 0.24 | 0.24 | 91 | 1006.5 |
| 20260510031056 | 52 | 0 | 0.0 | 4.0 | 0.04 | 0.23 | 0.23 | 91 | 1006.5 |
| 20260510030554 | 52 | 131 | 1.0 | 4.0 | 0.05 | 0.23 | 0.23 | 91 | 1006.5 |
| 20260510030106 | 52 | 97 | 0.0 | 5.0 | 0.07 | 0.23 | 0.23 | 90 | 1006.7 |
| 20260510025553 | 52 | 134 | 2.0 | 5.0 | 0.13 | 0.23 | 0.23 | 90 | 1006.7 |
| 20260510025056 | 52 | 117 | 1.0 | 5.0 | 0.23 | 0.23 | 0.23 | 90 | 1006.7 |
| 20260510024557 | 52 | 148 | 2.0 | 5.0 | 0.23 | 0.23 | 0.23 | 89 | 1006.6 |
| 20260510024055 | 52 | 136 | 1.0 | 4.0 | 0.22 | 0.22 | 0.22 | 89 | 1006.8 |
| 20260510023556 | 52 | 0 | 1.0 | 6.0 | 0.22 | 0.22 | 0.22 | 88 | 1007.0 |
| 20260510023056 | 53 | 0 | 2.0 | 6.0 | 0.22 | 0.22 | 0.22 | 88 | 1007.2 |
| 20260510022559 | 53 | 245 | 2.0 | 5.0 | 0.21 | 0.21 | 0.21 | 88 | 1007.6 |
| 20260510022057 | 53 | 293 | 2.0 | 7.0 | 0.20 | 0.20 | 0.20 | 88 | 1007.5 |
| 20260510021555 | 53 | 262 | 0.0 | 7.0 | 0.19 | 0.19 | 0.19 | 87 | 1007.2 |
| 20260510021055 | 53 | 300 | 3.0 | 8.0 | 0.19 | 0.19 | 0.19 | 87 | 1007.3 |
| 20260510020552 | 53 | 249 | 4.0 | 15.0 | 0.18 | 0.18 | 0.18 | 86 | 1007.3 |
| 20260510020101 | 54 | 268 | 6.0 | 17.0 | 0.16 | 0.16 | 0.16 | 84 | 1007.2 |
| 20260510015555 | 56 | 291 | 9.0 | 21.0 | 0.10 | 0.10 | 0.10 | 80 | 1007.0 |
| 20260510015052 | 57 | 262 | 12.0 | 21.0 | 0.00 | 0.00 | 0.00 | 79 | 1006.9 |
| 20260510014600 | 57 | 290 | 1.0 | 6.0 | 0.00 | 0.00 | 0.00 | 80 | 1006.4 |
| 20260510014052 | 57 | 0 | 0.0 | 3.0 | 0.00 | 0.00 | 0.00 | 78 | 1005.3 |
| 20260510013555 | 57 | 0 | 0.0 | 5.0 | 0.00 | 0.00 | 0.00 | 78 | 1005.1 |
| 20260510013103 | 57 | 123 | 0.0 | 5.0 | 0.00 | 0.00 | 0.00 | 78 | 1005.1 |
| 20260510012556 | 57 | 128 | 0.0 | 5.0 | 0.00 | 0.00 | 0.00 | 78 | 1005.0 |
| 20260510012053 | 58 | 0 | 0.0 | 4.0 | 0.00 | 0.00 | 0.00 | 78 | 1004.9 |
| 20260510011555 | 58 | 0 | 1.0 | 4.0 | 0.00 | 0.00 | 0.00 | 77 | 1004.9 |
| 20260510011053 | 58 | 0 | 0.0 | 4.0 | 0.00 | 0.00 | 0.00 | 77 | 1005.0 |
| 20260510010557 | 58 | 148 | 1.0 | 4.0 | 0.00 | 0.00 | 0.00 | 77 | 1004.8 |
| 20260510010058 | 58 | 127 | 1.0 | 4.0 | 0.00 | 0.00 | 0.00 | 77 | 1004.8 |
| 20260510005558 | 58 | 0 | 0.0 | 2.0 | 0.00 | 0.00 | 0.00 | 77 | 1004.6 |
| 20260510005101 | 58 | 0 | 0.0 | 2.0 | 0.00 | 0.00 | 0.00 | 77 | 1004.6 |
| 20260510004557 | 58 | 99 | 0.0 | 2.0 | 0.00 | 0.00 | 0.00 | 76 | 1004.5 |
| 20260510004057 | 58 | 0 | 1.0 | 3.0 | 0.00 | 0.00 | 0.00 | 76 | 1004.6 |
| 20260510003557 | 58 | 0 | 0.0 | 3.0 | 0.00 | 0.00 | 0.00 | 76 | 1004.7 |
| 20260510003100 | 58 | 100 | 0.0 | 3.0 | 0.00 | 0.00 | 0.00 | 75 | 1004.7 |
| 20260510002602 | 59 | 0 | 0.0 | 5.0 | 0.00 | 0.00 | 0.00 | 75 | 1004.7 |
| 20260510002057 | 59 | 0 | 1.0 | 5.0 | 0.00 | 0.00 | 0.00 | 75 | 1004.5 |
| 20260510001557 | 59 | 150 | 2.0 | 5.0 | 0.00 | 0.00 | 0.00 | 74 | 1004.4 |
| 20260510001057 | 59 | 126 | 0.0 | 5.0 | 0.00 | 0.00 | 0.00 | 74 | 1004.4 |
| 20260510000557 | 59 | 0 | 0.0 | 5.0 | 0.00 | 0.00 | 0.00 | 73 | 1004.5 |
| 20260510000111 | 60 | 285 | 1.0 | 4.0 | 0.00 | 0.00 | 0.00 | 73 | 1004.5 |
| 20260509235601 | 60 | 277 | 0.0 | 5.0 | 0.00 | 0.00 | 0.00 | 72 | 1004.5 |
| 20260509235057 | 60 | 236 | 2.0 | 5.0 | 0.00 | 0.00 | 0.00 | 72 | 1004.4 |
| 20260509234621 | 60 | 118 | 2.0 | 5.0 | 0.00 | 0.00 | 0.00 | 71 | 1004.5 |
| 20260509234058 | 61 | 0 | 0.0 | 3.0 | 0.00 | 0.00 | 0.00 | 71 | 1004.4 |
| 20260509233559 | 61 | 0 | 0.0 | 6.0 | 0.00 | 0.00 | 0.00 | 70 | 1004.4 |
| 20260509233058 | 62 | 138 | 1.0 | 6.0 | 0.00 | 0.00 | 0.00 | 69 | 1004.4 |
| 20260509232557 | 62 | 198 | 0.0 | 6.0 | 0.00 | 0.00 | 0.00 | 69 | 1004.4 |
| 20260509232058 | 62 | 120 | 2.0 | 6.0 | 0.00 | 0.00 | 0.00 | 69 | 1004.4 |
| 20260509231611 | 62 | 118 | 1.0 | 4.0 | 0.00 | 0.00 | 0.00 | 69 | 1004.3 |
| 20260509231057 | 62 | 155 | 1.0 | 7.0 | 0.00 | 0.00 | 0.00 | 69 | 1004.4 |
| 20260509230557 | 62 | 165 | 1.0 | 7.0 | 0.00 | 0.00 | 0.00 | 69 | 1004.4 |
| 20260509230105 | 62 | 105 | 1.0 | 8.0 | 0.00 | 0.00 | 0.00 | 68 | 1004.4 |
| 20260509225557 | 63 | 0 | 1.0 | 8.0 | 0.00 | 0.00 | 0.00 | 67 | 1004.5 |
| 20260509225100 | 63 | 127 | 1.0 | 5.0 | 0.00 | 0.00 | 0.00 | 66 | 1004.4 |
| 20260509224603 | 64 | 129 | 2.0 | 5.0 | 0.00 | 0.00 | 0.00 | 66 | 1004.2 |
| 20260509224100 | 64 | 140 | 1.0 | 4.0 | 0.00 | 0.00 | 0.00 | 66 | 1004.3 |
| 20260509223558 | 64 | 147 | 2.0 | 6.0 | 0.00 | 0.00 | 0.00 | 65 | 1004.2 |
| 20260509223057 | 64 | 135 | 2.0 | 6.0 | 0.00 | 0.00 | 0.00 | 65 | 1004.3 |
| 20260509222557 | 64 | 137 | 2.0 | 7.0 | 0.00 | 0.00 | 0.00 | 66 | 1004.3 |
| 20260509222058 | 64 | 229 | 1.0 | 8.0 | 0.00 | 0.00 | 0.00 | 66 | 1004.5 |
| 20260509221559 | 63 | 142 | 3.0 | 8.0 | 0.00 | 0.00 | 0.00 | 67 | 1004.6 |
| 20260509221057 | 64 | 130 | 3.0 | 10.0 | 0.00 | 0.00 | 0.00 | 65 | 1004.5 |
| 20260509220552 | 64 | 143 | 2.0 | 10.0 | 0.00 | 0.00 | 0.00 | 65 | 1004.4 |
| 20260509220056 | 64 | 197 | 2.0 | 8.0 | 0.00 | 0.00 | 0.00 | 65 | 1004.5 |
| 20260509215553 | 64 | 200 | 3.0 | 8.0 | 0.00 | 0.00 | 0.00 | 66 | 1004.5 |
| 20260509215056 | 64 | 131 | 2.0 | 10.0 | 0.00 | 0.00 | 0.00 | 67 | 1004.6 |
| 20260509214556 | 64 | 184 | 2.0 | 10.0 | 0.00 | 0.00 | 0.00 | 65 | 1004.6 |
| 20260509214055 | 64 | 224 | 4.0 | 9.0 | 0.00 | 0.00 | 0.00 | 66 | 1004.7 |
| 20260509213555 | 63 | 229 | 3.0 | 11.0 | 0.00 | 0.00 | 0.00 | 67 | 1004.6 |
| 20260509213055 | 63 | 134 | 3.0 | 11.0 | 0.00 | 0.00 | 0.00 | 66 | 1004.6 |
| 20260509212553 | 64 | 252 | 4.0 | 11.0 | 0.00 | 0.00 | 0.00 | 66 | 1004.7 |
| 20260509212055 | 64 | 213 | 2.0 | 11.0 | 0.00 | 0.00 | 0.00 | 65 | 1004.7 |
| 20260509211601 | 65 | 133 | 5.0 | 11.0 | 0.00 | 0.00 | 0.00 | 64 | 1004.7 |
| 20260509211056 | 65 | 219 | 2.0 | 11.0 | 0.00 | 0.00 | 0.00 | 65 | 1004.7 |
| 20260509210557 | 65 | 237 | 4.0 | 10.0 | 0.00 | 0.00 | 0.00 | 63 | 1004.7 |
| 20260509210109 | 65 | 231 | 4.0 | 10.0 | 0.00 | 0.00 | 0.00 | 63 | 1004.6 |
| 20260509205558 | 65 | 103 | 3.0 | 11.0 | 0.00 | 0.00 | 0.00 | 63 | 1004.7 |
| 20260509205055 | 65 | 239 | 3.0 | 11.0 | 0.00 | 0.00 | 0.00 | 64 | 1004.6 |
| 20260509204554 | 65 | 199 | 3.0 | 12.0 | 0.00 | 0.00 | 0.00 | 65 | 1004.8 |
| 20260509204056 | 65 | 144 | 6.0 | 12.0 | 0.00 | 0.00 | 0.00 | 63 | 1004.8 |
| 20260509203559 | 65 | 65 | 4.0 | 11.0 | 0.00 | 0.00 | 0.00 | 63 | 1004.7 |
| 20260509203056 | 65 | 227 | 3.0 | 11.0 | 0.00 | 0.00 | 0.00 | 65 | 1004.7 |
| 20260509202559 | 64 | 70 | 3.0 | 11.0 | 0.00 | 0.00 | 0.00 | 65 | 1004.9 |
| 20260509202055 | 64 | 211 | 3.0 | 11.0 | 0.00 | 0.00 | 0.00 | 64 | 1004.9 |
| 20260509201559 | 64 | 79 | 2.0 | 12.0 | 0.00 | 0.00 | 0.00 | 65 | 1004.9 |
| 20260509201052 | 64 | 136 | 3.0 | 12.0 | 0.00 | 0.00 | 0.00 | 65 | 1004.9 |
| 20260509200552 | 64 | 225 | 3.0 | 8.0 | 0.00 | 0.00 | 0.00 | 66 | 1004.8 |
| 20260509200104 | 63 | 109 | 3.0 | 8.0 | 0.00 | 0.00 | 0.00 | 66 | 1004.9 |
| 20260509195557 | 63 | 124 | 2.0 | 9.0 | 0.00 | 0.00 | 0.00 | 68 | 1005.0 |
| 20260509195059 | 63 | 205 | 3.0 | 9.0 | 0.00 | 0.00 | 0.00 | 67 | 1005.1 |
| 20260509194558 | 63 | 144 | 4.0 | 12.0 | 0.00 | 0.00 | 0.00 | 66 | 1005.1 |
| 20260509194054 | 63 | 117 | 3.0 | 12.0 | 0.00 | 0.00 | 0.00 | 66 | 1005.3 |
| 20260509193553 | 63 | 224 | 4.0 | 12.0 | 0.00 | 0.00 | 0.00 | 66 | 1005.3 |
| 20260509193057 | 63 | 240 | 4.0 | 9.0 | 0.00 | 0.00 | 0.00 | 68 | 1005.4 |
| 20260509192556 | 63 | 248 | 3.0 | 8.0 | 0.00 | 0.00 | 0.00 | 67 | 1005.3 |